owner,sensor,date,latitude,longitude,vertical_datum,sea_water_practical_salinity,qcFlag 
DISL,ioos:station:DISL:BSCA:1,2011-08-01T00:00:00Z,30.3288,-87.8293,1.895,16.86,1111122 
DISL,ioos:station:DISL:BSCA:1,2011-08-01T00:30:00Z,30.3288,-87.8293,1.84,16.81,1111122 
DISL,ioos:station:DISL:BSCA:1,2011-08-01T01:00:00Z,30.3288,-87.8293,1.743,15.76,1111122 
DISL,ioos:station:DISL:BSCA:1,2011-08-01T01:30:00Z,30.3288,-87.8293,1.706,16.03,1111122 
DISL,ioos:station:DISL:BSCA:1,2011-08-01T02:00:00Z,30.3288,-87.8293,1.709,17.09,1111122 
DISL,ioos:station:DISL:BSCA:1,2011-08-01T02:30:00Z,30.3288,-87.8293,1.704,17.16,1111122 
DISL,ioos:station:DISL:BSCA:1,2011-08-01T03:00:00Z,30.3288,-87.8293,1.728,16.42,1111122 
DISL,ioos:station:DISL:BSCA:1,2011-08-01T03:30:00Z,30.3288,-87.8293,1.719,16.91,1111122 
DISL,ioos:station:DISL:BSCA:1,2011-08-01T04:00:00Z,30.3288,-87.8293,1.735,16.92,1111122 
DISL,ioos:station:DISL:BSCA:1,2011-08-01T04:30:00Z,30.3288,-87.8293,1.733,16.82,1111122 
DISL,ioos:station:DISL:BSCA:1,2011-08-01T05:00:00Z,30.3288,-87.8293,1.743,16.27,1111122 
DISL,ioos:station:DISL:BSCA:1,2011-08-01T05:30:00Z,30.3288,-87.8293,1.733,15.15,1111122 
DISL,ioos:station:DISL:BSCA:1,2011-08-01T06:00:00Z,30.3288,-87.8293,1.757,15.87,1111122 
DISL,ioos:station:DISL:BSCA:1,2011-08-01T06:30:00Z,30.3288,-87.8293,1.801,15.84,1111122 
DISL,ioos:station:DISL:BSCA:1,2011-08-01T07:00:00Z,30.3288,-87.8293,1.839,15.76,1111122 
DISL,ioos:station:DISL:BSCA:1,2011-08-01T07:30:00Z,30.3288,-87.8293,1.871,15.56,1111122 
DISL,ioos:station:DISL:BSCA:1,2011-08-01T08:00:00Z,30.3288,-87.8293,1.895,16.48,1111122 
DISL,ioos:station:DISL:BSCA:1,2011-08-01T08:30:00Z,30.3288,-87.8293,1.913,16.19,1111122 
DISL,ioos:station:DISL:BSCA:1,2011-08-01T09:00:00Z,30.3288,-87.8293,1.92,16.23,1111122 
DISL,ioos:station:DISL:BSCA:1,2011-08-01T09:30:00Z,30.3288,-87.8293,1.924,15.85,1111122 
DISL,ioos:station:DISL:BSCA:1,2011-08-01T10:00:00Z,30.3288,-87.8293,1.926,15.87,1111122 
DISL,ioos:station:DISL:BSCA:1,2011-08-01T10:30:00Z,30.3288,-87.8293,1.937,15.79,1111122 
DISL,ioos:station:DISL:BSCA:1,2011-08-01T11:00:00Z,30.3288,-87.8293,1.942,16.71,1111122 
DISL,ioos:station:DISL:BSCA:1,2011-08-01T11:30:00Z,30.3288,-87.8293,1.966,17.26,1111122 
DISL,ioos:station:DISL:BSCA:1,2011-08-01T12:00:00Z,30.3288,-87.8293,1.99,17.19,1111122 
DISL,ioos:station:DISL:BSCA:1,2011-08-01T12:30:00Z,30.3288,-87.8293,2.018,17.62,1111122 
DISL,ioos:station:DISL:BSCA:1,2011-08-01T13:00:00Z,30.3288,-87.8293,2.052,17.97,1111122 
DISL,ioos:station:DISL:BSCA:1,2011-08-01T13:30:00Z,30.3288,-87.8293,2.086,17.98,1111122 
DISL,ioos:station:DISL:BSCA:1,2011-08-01T14:00:00Z,30.3288,-87.8293,2.11,18.09,1111122 
DISL,ioos:station:DISL:BSCA:1,2011-08-01T14:30:00Z,30.3288,-87.8293,2.129,18.19,1111122 
DISL,ioos:station:DISL:BSCA:1,2011-08-01T15:00:00Z,30.3288,-87.8293,2.139,17.27,1111122 
DISL,ioos:station:DISL:BSCA:1,2011-08-01T15:30:00Z,30.3288,-87.8293,2.152,18.14,1111122 
DISL,ioos:station:DISL:BSCA:1,2011-08-01T16:00:00Z,30.3288,-87.8293,2.163,18.55,1111122 
DISL,ioos:station:DISL:BSCA:1,2011-08-01T16:30:00Z,30.3288,-87.8293,2.158,18.64,1111122 
DISL,ioos:station:DISL:BSCA:1,2011-08-01T17:00:00Z,30.3288,-87.8293,2.166,18.56,1111122 
DISL,ioos:station:DISL:BSCA:1,2011-08-01T17:30:00Z,30.3288,-87.8293,2.163,18.11,1111122 
DISL,ioos:station:DISL:BSCA:1,2011-08-01T18:00:00Z,30.3288,-87.8293,2.17,18.78,1111122 
DISL,ioos:station:DISL:BSCA:1,2011-08-01T18:30:00Z,30.3288,-87.8293,2.175,18.6,1111122 
DISL,ioos:station:DISL:BSCA:1,2011-08-01T19:00:00Z,30.3288,-87.8293,2.173,18.92,1111122 
DISL,ioos:station:DISL:BSCA:1,2011-08-01T19:30:00Z,30.3288,-87.8293,2.152,19.35,1111122 
DISL,ioos:station:DISL:BSCA:1,2011-08-01T20:00:00Z,30.3288,-87.8293,2.157,19.45,1111122 
DISL,ioos:station:DISL:BSCA:1,2011-08-01T20:30:00Z,30.3288,-87.8293,2.132,18.57,1111122 
DISL,ioos:station:DISL:BSCA:1,2011-08-01T21:00:00Z,30.3288,-87.8293,2.115,18.84,1111122 
DISL,ioos:station:DISL:BSCA:1,2011-08-01T21:30:00Z,30.3288,-87.8293,2.068,16.93,1111122 
DISL,ioos:station:DISL:BSCA:1,2011-08-01T22:00:00Z,30.3288,-87.8293,2.035,17.35,1111122 
DISL,ioos:station:DISL:BSCA:1,2011-08-01T22:30:00Z,30.3288,-87.8293,1.989,17.27,1111122 
DISL,ioos:station:DISL:BSCA:1,2011-08-01T23:00:00Z,30.3288,-87.8293,1.951,16.79,1111122 
DISL,ioos:station:DISL:BSCA:1,2011-08-01T23:30:00Z,30.3288,-87.8293,1.914,17.18,1111122 
DISL,ioos:station:DISL:BSCA:1,2011-08-02T00:00:00Z,30.3288,-87.8293,1.9,15.91,1111122 
DISL,ioos:station:DISL:BSCA:1,2011-08-02T00:30:00Z,30.3288,-87.8293,1.889,17.22,1111122 
DISL,ioos:station:DISL:BSCA:1,2011-08-02T01:00:00Z,30.3288,-87.8293,1.877,17.21,1111122 
DISL,ioos:station:DISL:BSCA:1,2011-08-02T01:30:00Z,30.3288,-87.8293,1.861,17.24,1111122 
DISL,ioos:station:DISL:BSCA:1,2011-08-02T02:00:00Z,30.3288,-87.8293,1.852,16.41,1111122 
DISL,ioos:station:DISL:BSCA:1,2011-08-02T02:30:00Z,30.3288,-87.8293,1.824,17.23,1111122 
DISL,ioos:station:DISL:BSCA:1,2011-08-02T03:00:00Z,30.3288,-87.8293,1.799,15.8,1111122 
DISL,ioos:station:DISL:BSCA:1,2011-08-02T03:30:00Z,30.3288,-87.8293,1.796,15.74,1111122 
DISL,ioos:station:DISL:BSCA:1,2011-08-02T04:00:00Z,30.3288,-87.8293,1.79,15.73,1111122 
DISL,ioos:station:DISL:BSCA:1,2011-08-02T04:30:00Z,30.3288,-87.8293,1.754,16.81,1111122 
DISL,ioos:station:DISL:BSCA:1,2011-08-02T05:00:00Z,30.3288,-87.8293,1.751,16.03,1111122 
DISL,ioos:station:DISL:BSCA:1,2011-08-02T05:30:00Z,30.3288,-87.8293,1.763,15.92,1111122 
DISL,ioos:station:DISL:BSCA:1,2011-08-02T06:00:00Z,30.3288,-87.8293,1.789,16.53,1111122 
DISL,ioos:station:DISL:BSCA:1,2011-08-02T06:30:00Z,30.3288,-87.8293,1.814,15.87,1111122 
DISL,ioos:station:DISL:BSCA:1,2011-08-02T07:00:00Z,30.3288,-87.8293,1.851,16.14,1111122 
DISL,ioos:station:DISL:BSCA:1,2011-08-02T07:30:00Z,30.3288,-87.8293,1.878,17.14,1111122 
DISL,ioos:station:DISL:BSCA:1,2011-08-02T08:00:00Z,30.3288,-87.8293,1.9,16.92,1111122 
DISL,ioos:station:DISL:BSCA:1,2011-08-02T08:30:00Z,30.3288,-87.8293,1.907,16.75,1111122 
DISL,ioos:station:DISL:BSCA:1,2011-08-02T09:00:00Z,30.3288,-87.8293,1.921,16.74,1111122 
DISL,ioos:station:DISL:BSCA:1,2011-08-02T09:30:00Z,30.3288,-87.8293,1.927,17.27,1111122 
DISL,ioos:station:DISL:BSCA:1,2011-08-02T10:00:00Z,30.3288,-87.8293,1.94,16.95,1111122 
DISL,ioos:station:DISL:BSCA:1,2011-08-02T10:30:00Z,30.3288,-87.8293,1.944,17.39,1111122 
DISL,ioos:station:DISL:BSCA:1,2011-08-02T11:00:00Z,30.3288,-87.8293,1.948,16.58,1111122 
DISL,ioos:station:DISL:BSCA:1,2011-08-02T11:30:00Z,30.3288,-87.8293,1.95,16.5,1111122 
DISL,ioos:station:DISL:BSCA:1,2011-08-02T12:00:00Z,30.3288,-87.8293,1.948,15.81,1111122 
DISL,ioos:station:DISL:BSCA:1,2011-08-02T12:30:00Z,30.3288,-87.8293,1.932,15.92,1111122 
DISL,ioos:station:DISL:BSCA:1,2011-08-02T13:00:00Z,30.3288,-87.8293,1.932,15.86,1111122 
DISL,ioos:station:DISL:BSCA:1,2011-08-02T13:30:00Z,30.3288,-87.8293,1.93,16.57,1111122 
DISL,ioos:station:DISL:BSCA:1,2011-08-02T14:00:00Z,30.3288,-87.8293,1.951,16.79,1111122 
DISL,ioos:station:DISL:BSCA:1,2011-08-02T14:30:00Z,30.3288,-87.8293,1.964,17.13,1111122 
DISL,ioos:station:DISL:BSCA:1,2011-08-02T15:00:00Z,30.3288,-87.8293,1.977,17.29,1111122 
DISL,ioos:station:DISL:BSCA:1,2011-08-02T15:30:00Z,30.3288,-87.8293,1.999,17.1,1111122 
DISL,ioos:station:DISL:BSCA:1,2011-08-02T16:00:00Z,30.3288,-87.8293,2.018,17.16,1111122 
DISL,ioos:station:DISL:BSCA:1,2011-08-02T16:30:00Z,30.3288,-87.8293,2.038,16.81,1111122 
DISL,ioos:station:DISL:BSCA:1,2011-08-02T17:00:00Z,30.3288,-87.8293,2.051,17.16,1111122 
DISL,ioos:station:DISL:BSCA:1,2011-08-02T17:30:00Z,30.3288,-87.8293,2.06,17.36,1111122 
DISL,ioos:station:DISL:BSCA:1,2011-08-02T18:00:00Z,30.3288,-87.8293,2.068,17.23,1111122 
DISL,ioos:station:DISL:BSCA:1,2011-08-02T18:30:00Z,30.3288,-87.8293,2.063,17.46,1111122 
DISL,ioos:station:DISL:BSCA:1,2011-08-02T19:00:00Z,30.3288,-87.8293,2.067,17.27,1111122 
DISL,ioos:station:DISL:BSCA:1,2011-08-02T19:30:00Z,30.3288,-87.8293,2.07,17.28,1111122 
DISL,ioos:station:DISL:BSCA:1,2011-08-02T20:00:00Z,30.3288,-87.8293,2.077,17.47,1111122 
DISL,ioos:station:DISL:BSCA:1,2011-08-02T20:30:00Z,30.3288,-87.8293,2.084,17.45,1111122 
DISL,ioos:station:DISL:BSCA:1,2011-08-02T21:00:00Z,30.3288,-87.8293,2.065,17.36,1111122 
DISL,ioos:station:DISL:BSCA:1,2011-08-02T21:30:00Z,30.3288,-87.8293,2.047,16.83,1111122 
DISL,ioos:station:DISL:BSCA:1,2011-08-02T22:00:00Z,30.3288,-87.8293,2.025,16.23,1111122 
DISL,ioos:station:DISL:BSCA:1,2011-08-02T22:30:00Z,30.3288,-87.8293,2.015,16.94,1111122 
DISL,ioos:station:DISL:BSCA:1,2011-08-02T23:00:00Z,30.3288,-87.8293,1.991,17.0,1111122 
DISL,ioos:station:DISL:BSCA:1,2011-08-02T23:30:00Z,30.3288,-87.8293,1.955,15.88,1111122 
DISL,ioos:station:DISL:BSCA:1,2011-08-03T00:00:00Z,30.3288,-87.8293,1.94,16.07,1111122 
DISL,ioos:station:DISL:BSCA:1,2011-08-03T00:30:00Z,30.3288,-87.8293,1.903,16.61,1111122 
DISL,ioos:station:DISL:BSCA:1,2011-08-03T01:00:00Z,30.3288,-87.8293,1.913,16.25,1111122 
DISL,ioos:station:DISL:BSCA:1,2011-08-03T01:30:00Z,30.3288,-87.8293,1.899,16.39,1111122 
DISL,ioos:station:DISL:BSCA:1,2011-08-03T02:00:00Z,30.3288,-87.8293,1.896,16.39,1111122 
DISL,ioos:station:DISL:BSCA:1,2011-08-03T02:30:00Z,30.3288,-87.8293,1.865,16.04,1111122 
DISL,ioos:station:DISL:BSCA:1,2011-08-03T03:00:00Z,30.3288,-87.8293,1.869,15.24,1111122 
DISL,ioos:station:DISL:BSCA:1,2011-08-03T03:30:00Z,30.3288,-87.8293,1.883,16.44,1111122 
DISL,ioos:station:DISL:BSCA:1,2011-08-03T04:00:00Z,30.3288,-87.8293,1.892,16.39,1111122 
DISL,ioos:station:DISL:BSCA:1,2011-08-03T04:30:00Z,30.3288,-87.8293,1.922,16.45,1111122 
DISL,ioos:station:DISL:BSCA:1,2011-08-03T05:00:00Z,30.3288,-87.8293,1.924,16.37,1111122 
DISL,ioos:station:DISL:BSCA:1,2011-08-03T05:30:00Z,30.3288,-87.8293,1.92,16.55,1111122 
DISL,ioos:station:DISL:BSCA:1,2011-08-03T06:00:00Z,30.3288,-87.8293,1.926,16.59,1111122 
DISL,ioos:station:DISL:BSCA:1,2011-08-03T06:30:00Z,30.3288,-87.8293,1.944,16.75,1111122 
DISL,ioos:station:DISL:BSCA:1,2011-08-03T07:00:00Z,30.3288,-87.8293,1.932,16.8,1111122 
DISL,ioos:station:DISL:BSCA:1,2011-08-03T07:30:00Z,30.3288,-87.8293,1.957,15.34,1111122 
DISL,ioos:station:DISL:BSCA:1,2011-08-03T08:00:00Z,30.3288,-87.8293,1.962,16.74,1111122 
DISL,ioos:station:DISL:BSCA:1,2011-08-03T08:30:00Z,30.3288,-87.8293,1.968,16.4,1111122 
DISL,ioos:station:DISL:BSCA:1,2011-08-03T09:00:00Z,30.3288,-87.8293,1.977,16.82,1111122 
DISL,ioos:station:DISL:BSCA:1,2011-08-03T09:30:00Z,30.3288,-87.8293,1.983,17.28,1111122 
DISL,ioos:station:DISL:BSCA:1,2011-08-03T10:00:00Z,30.3288,-87.8293,1.983,16.27,1111122 
DISL,ioos:station:DISL:BSCA:1,2011-08-03T10:30:00Z,30.3288,-87.8293,1.984,16.74,1111122 
DISL,ioos:station:DISL:BSCA:1,2011-08-03T11:00:00Z,30.3288,-87.8293,1.969,16.74,1111122 
DISL,ioos:station:DISL:BSCA:1,2011-08-03T11:30:00Z,30.3288,-87.8293,1.939,16.56,1111122 
DISL,ioos:station:DISL:BSCA:1,2011-08-03T12:00:00Z,30.3288,-87.8293,1.92,16.75,1111122 
DISL,ioos:station:DISL:BSCA:1,2011-08-03T12:30:00Z,30.3288,-87.8293,1.899,16.5,1111122 
DISL,ioos:station:DISL:BSCA:1,2011-08-03T13:00:00Z,30.3288,-87.8293,1.888,15.43,1111122 
DISL,ioos:station:DISL:BSCA:1,2011-08-03T13:30:00Z,30.3288,-87.8293,1.887,16.6,1111122 
DISL,ioos:station:DISL:BSCA:1,2011-08-03T14:00:00Z,30.3288,-87.8293,1.885,16.19,1111122 
DISL,ioos:station:DISL:BSCA:1,2011-08-03T14:30:00Z,30.3288,-87.8293,1.896,15.99,1111122 
DISL,ioos:station:DISL:BSCA:1,2011-08-03T15:00:00Z,30.3288,-87.8293,1.895,16.1,1111122 
DISL,ioos:station:DISL:BSCA:1,2011-08-03T15:30:00Z,30.3288,-87.8293,1.904,16.24,1111122 
DISL,ioos:station:DISL:BSCA:1,2011-08-03T16:00:00Z,30.3288,-87.8293,1.909,16.11,1111122 
DISL,ioos:station:DISL:BSCA:1,2011-08-03T16:30:00Z,30.3288,-87.8293,1.924,16.27,1111122 
DISL,ioos:station:DISL:BSCA:1,2011-08-03T17:00:00Z,30.3288,-87.8293,1.932,16.35,1111122 
DISL,ioos:station:DISL:BSCA:1,2011-08-03T17:30:00Z,30.3288,-87.8293,1.933,16.27,1111122 
DISL,ioos:station:DISL:BSCA:1,2011-08-03T18:00:00Z,30.3288,-87.8293,1.942,16.25,1111122 
DISL,ioos:station:DISL:BSCA:1,2011-08-03T18:30:00Z,30.3288,-87.8293,1.954,16.45,1111122 
DISL,ioos:station:DISL:BSCA:1,2011-08-03T19:00:00Z,30.3288,-87.8293,1.96,17.12,1111122 
DISL,ioos:station:DISL:BSCA:1,2011-08-03T19:30:00Z,30.3288,-87.8293,1.974,16.38,1111122 
DISL,ioos:station:DISL:BSCA:1,2011-08-03T20:00:00Z,30.3288,-87.8293,1.983,16.18,1111122 
DISL,ioos:station:DISL:BSCA:1,2011-08-03T20:30:00Z,30.3288,-87.8293,2.0,16.23,1111122 
DISL,ioos:station:DISL:BSCA:1,2011-08-03T21:00:00Z,30.3288,-87.8293,2.007,17.57,1111122 
DISL,ioos:station:DISL:BSCA:1,2011-08-03T21:30:00Z,30.3288,-87.8293,2.014,17.35,1111122 
DISL,ioos:station:DISL:BSCA:1,2011-08-03T22:00:00Z,30.3288,-87.8293,2.01,16.85,1111122 
DISL,ioos:station:DISL:BSCA:1,2011-08-03T22:30:00Z,30.3288,-87.8293,2.015,17.01,1111122 
DISL,ioos:station:DISL:BSCA:1,2011-08-03T23:00:00Z,30.3288,-87.8293,1.994,17.06,1111122 
DISL,ioos:station:DISL:BSCA:1,2011-08-03T23:30:00Z,30.3288,-87.8293,1.996,16.83,1111122 
DISL,ioos:station:DISL:BSCA:1,2011-08-04T00:00:00Z,30.3288,-87.8293,1.976,16.27,1111122 
DISL,ioos:station:DISL:BSCA:1,2011-08-04T00:30:00Z,30.3288,-87.8293,1.967,16.45,1111122 
DISL,ioos:station:DISL:BSCA:1,2011-08-04T01:00:00Z,30.3288,-87.8293,1.974,15.79,1111122 
DISL,ioos:station:DISL:BSCA:1,2011-08-04T01:30:00Z,30.3288,-87.8293,1.957,15.88,1111122 
DISL,ioos:station:DISL:BSCA:1,2011-08-04T02:00:00Z,30.3288,-87.8293,1.964,17.03,1111122 
DISL,ioos:station:DISL:BSCA:1,2011-08-04T02:30:00Z,30.3288,-87.8293,1.962,15.87,1111122 
DISL,ioos:station:DISL:BSCA:1,2011-08-04T03:00:00Z,30.3288,-87.8293,1.964,16.31,1111122 
DISL,ioos:station:DISL:BSCA:1,2011-08-04T03:30:00Z,30.3288,-87.8293,1.976,16.63,1111122 
DISL,ioos:station:DISL:BSCA:1,2011-08-04T04:00:00Z,30.3288,-87.8293,1.992,16.85,1111122 
DISL,ioos:station:DISL:BSCA:1,2011-08-04T04:30:00Z,30.3288,-87.8293,2.013,15.45,1111122 
DISL,ioos:station:DISL:BSCA:1,2011-08-04T05:00:00Z,30.3288,-87.8293,2.023,17.13,1111122 
DISL,ioos:station:DISL:BSCA:1,2011-08-04T05:30:00Z,30.3288,-87.8293,2.037,16.9,1111122 
DISL,ioos:station:DISL:BSCA:1,2011-08-04T06:00:00Z,30.3288,-87.8293,2.054,17.2,1111122 
DISL,ioos:station:DISL:BSCA:1,2011-08-04T06:30:00Z,30.3288,-87.8293,2.054,16.9,1111122 
DISL,ioos:station:DISL:BSCA:1,2011-08-04T07:00:00Z,30.3288,-87.8293,2.061,17.13,1111122 
DISL,ioos:station:DISL:BSCA:1,2011-08-04T07:30:00Z,30.3288,-87.8293,2.075,16.61,1111122 
DISL,ioos:station:DISL:BSCA:1,2011-08-04T08:00:00Z,30.3288,-87.8293,2.082,16.85,1111122 
DISL,ioos:station:DISL:BSCA:1,2011-08-04T08:30:00Z,30.3288,-87.8293,2.087,15.93,1111122 
DISL,ioos:station:DISL:BSCA:1,2011-08-04T09:00:00Z,30.3288,-87.8293,2.087,16.76,1111122 
DISL,ioos:station:DISL:BSCA:1,2011-08-04T09:30:00Z,30.3288,-87.8293,2.078,16.49,1111122 
DISL,ioos:station:DISL:BSCA:1,2011-08-04T10:00:00Z,30.3288,-87.8293,2.082,17.06,1111122 
DISL,ioos:station:DISL:BSCA:1,2011-08-04T10:30:00Z,30.3288,-87.8293,2.06,17.22,1111122 
DISL,ioos:station:DISL:BSCA:1,2011-08-04T11:00:00Z,30.3288,-87.8293,2.05,17.4,1111122 
DISL,ioos:station:DISL:BSCA:1,2011-08-04T11:30:00Z,30.3288,-87.8293,2.02,17.29,1111122 
DISL,ioos:station:DISL:BSCA:1,2011-08-04T12:00:00Z,30.3288,-87.8293,1.987,17.36,1111122 
DISL,ioos:station:DISL:BSCA:1,2011-08-04T12:30:00Z,30.3288,-87.8293,1.965,16.75,1111122 
DISL,ioos:station:DISL:BSCA:1,2011-08-04T13:00:00Z,30.3288,-87.8293,1.95,17.23,1111122 
DISL,ioos:station:DISL:BSCA:1,2011-08-04T13:30:00Z,30.3288,-87.8293,1.92,17.72,1111122 
DISL,ioos:station:DISL:BSCA:1,2011-08-04T14:00:00Z,30.3288,-87.8293,1.905,17.73,1111122 
DISL,ioos:station:DISL:BSCA:1,2011-08-04T14:30:00Z,30.3288,-87.8293,1.876,17.71,1111122 
DISL,ioos:station:DISL:BSCA:1,2011-08-04T15:00:00Z,30.3288,-87.8293,1.857,17.61,1111122 
DISL,ioos:station:DISL:BSCA:1,2011-08-04T15:30:00Z,30.3288,-87.8293,1.845,17.85,1111122 
DISL,ioos:station:DISL:BSCA:1,2011-08-04T16:00:00Z,30.3288,-87.8293,1.834,17.68,1111122 
DISL,ioos:station:DISL:BSCA:1,2011-08-04T16:30:00Z,30.3288,-87.8293,1.84,17.44,1111122 
DISL,ioos:station:DISL:BSCA:1,2011-08-04T17:00:00Z,30.3288,-87.8293,1.834,17.98,1111122 
DISL,ioos:station:DISL:BSCA:1,2011-08-04T17:30:00Z,30.3288,-87.8293,1.834,17.65,1111122 
DISL,ioos:station:DISL:BSCA:1,2011-08-04T18:00:00Z,30.3288,-87.8293,1.824,17.43,1111122 
DISL,ioos:station:DISL:BSCA:1,2011-08-04T18:30:00Z,30.3288,-87.8293,1.824,17.62,1111122 
DISL,ioos:station:DISL:BSCA:1,2011-08-04T19:00:00Z,30.3288,-87.8293,1.812,17.36,1111122 
DISL,ioos:station:DISL:BSCA:1,2011-08-04T19:30:00Z,30.3288,-87.8293,1.82,17.56,1111122 
DISL,ioos:station:DISL:BSCA:1,2011-08-04T20:00:00Z,30.3288,-87.8293,1.827,17.35,1111122 
DISL,ioos:station:DISL:BSCA:1,2011-08-04T20:30:00Z,30.3288,-87.8293,1.843,17.86,1111122 
DISL,ioos:station:DISL:BSCA:1,2011-08-04T21:00:00Z,30.3288,-87.8293,1.86,17.75,1111122 
DISL,ioos:station:DISL:BSCA:1,2011-08-04T21:30:00Z,30.3288,-87.8293,1.863,17.7,1111122 
DISL,ioos:station:DISL:BSCA:1,2011-08-04T22:00:00Z,30.3288,-87.8293,1.873,17.88,1111122 
DISL,ioos:station:DISL:BSCA:1,2011-08-04T22:30:00Z,30.3288,-87.8293,1.882,17.96,1111122 
DISL,ioos:station:DISL:BSCA:1,2011-08-04T23:00:00Z,30.3288,-87.8293,1.895,17.6,1111122 
DISL,ioos:station:DISL:BSCA:1,2011-08-04T23:30:00Z,30.3288,-87.8293,1.904,17.62,1111122 
DISL,ioos:station:DISL:BSCA:1,2011-08-05T00:00:00Z,30.3288,-87.8293,1.907,17.14,1111122 
DISL,ioos:station:DISL:BSCA:1,2011-08-05T00:30:00Z,30.3288,-87.8293,1.948,17.07,1111122 
DISL,ioos:station:DISL:BSCA:1,2011-08-05T01:00:00Z,30.3288,-87.8293,1.929,17.13,1111122 
DISL,ioos:station:DISL:BSCA:1,2011-08-05T01:30:00Z,30.3288,-87.8293,1.966,16.84,1111122 
DISL,ioos:station:DISL:BSCA:1,2011-08-05T02:00:00Z,30.3288,-87.8293,1.94,16.53,1111122 
DISL,ioos:station:DISL:BSCA:1,2011-08-05T02:30:00Z,30.3288,-87.8293,1.98,17.08,1111122 
DISL,ioos:station:DISL:BSCA:1,2011-08-05T03:00:00Z,30.3288,-87.8293,1.951,16.48,1111122 
DISL,ioos:station:DISL:BSCA:1,2011-08-05T03:30:00Z,30.3288,-87.8293,1.982,17.33,1111122 
DISL,ioos:station:DISL:BSCA:1,2011-08-05T04:00:00Z,30.3288,-87.8293,1.991,16.63,1111122 
DISL,ioos:station:DISL:BSCA:1,2011-08-05T04:30:00Z,30.3288,-87.8293,2.004,16.46,1111122 
DISL,ioos:station:DISL:BSCA:1,2011-08-05T05:00:00Z,30.3288,-87.8293,1.92,16.2,1111122 
DISL,ioos:station:DISL:BSCA:1,2011-08-05T05:30:00Z,30.3288,-87.8293,2.195,16.16,1111122 
DISL,ioos:station:DISL:BSCA:1,2011-08-05T06:00:00Z,30.3288,-87.8293,2.13,16.68,1111122 
DISL,ioos:station:DISL:BSCA:1,2011-08-05T06:30:00Z,30.3288,-87.8293,2.02,16.2,1111122 
DISL,ioos:station:DISL:BSCA:1,2011-08-05T07:00:00Z,30.3288,-87.8293,1.929,16.46,1111122 
DISL,ioos:station:DISL:BSCA:1,2011-08-05T07:30:00Z,30.3288,-87.8293,1.781,16.69,1111122 
DISL,ioos:station:DISL:BSCA:1,2011-08-05T08:00:00Z,30.3288,-87.8293,1.724,16.98,1111122 
DISL,ioos:station:DISL:BSCA:1,2011-08-05T08:30:00Z,30.3288,-87.8293,1.717,16.99,1111122 
DISL,ioos:station:DISL:BSCA:1,2011-08-05T09:00:00Z,30.3288,-87.8293,1.761,16.68,1111122 
DISL,ioos:station:DISL:BSCA:1,2011-08-05T09:30:00Z,30.3288,-87.8293,1.888,16.25,1111122 
DISL,ioos:station:DISL:BSCA:1,2011-08-05T10:00:00Z,30.3288,-87.8293,2.036,16.97,1111122 
DISL,ioos:station:DISL:BSCA:1,2011-08-05T10:30:00Z,30.3288,-87.8293,2.156,17.31,1111122 
DISL,ioos:station:DISL:BSCA:1,2011-08-05T11:00:00Z,30.3288,-87.8293,2.184,16.88,1111122 
DISL,ioos:station:DISL:BSCA:1,2011-08-05T11:30:00Z,30.3288,-87.8293,2.167,16.55,1111122 
DISL,ioos:station:DISL:BSCA:1,2011-08-05T12:00:00Z,30.3288,-87.8293,2.127,16.18,1111122 
DISL,ioos:station:DISL:BSCA:1,2011-08-05T12:30:00Z,30.3288,-87.8293,2.059,16.28,1111122 
DISL,ioos:station:DISL:BSCA:1,2011-08-05T13:00:00Z,30.3288,-87.8293,1.985,16.98,1111122 
DISL,ioos:station:DISL:BSCA:1,2011-08-05T13:30:00Z,30.3288,-87.8293,1.944,16.77,1111122 
DISL,ioos:station:DISL:BSCA:1,2011-08-05T14:00:00Z,30.3288,-87.8293,1.907,17.3,1111122 
DISL,ioos:station:DISL:BSCA:1,2011-08-05T14:30:00Z,30.3288,-87.8293,1.903,17.41,1111122 
DISL,ioos:station:DISL:BSCA:1,2011-08-05T15:00:00Z,30.3288,-87.8293,1.901,17.19,1111122 
DISL,ioos:station:DISL:BSCA:1,2011-08-05T15:30:00Z,30.3288,-87.8293,1.903,17.23,1111122 
DISL,ioos:station:DISL:BSCA:1,2011-08-05T16:00:00Z,30.3288,-87.8293,1.88,15.97,1111122 
DISL,ioos:station:DISL:BSCA:1,2011-08-05T16:30:00Z,30.3288,-87.8293,1.83,17.56,1111122 
DISL,ioos:station:DISL:BSCA:1,2011-08-05T17:00:00Z,30.3288,-87.8293,1.79,17.57,1111122 
DISL,ioos:station:DISL:BSCA:1,2011-08-05T17:30:00Z,30.3288,-87.8293,1.747,17.62,1111122 
DISL,ioos:station:DISL:BSCA:1,2011-08-05T18:00:00Z,30.3288,-87.8293,1.729,16.9,1111122 
DISL,ioos:station:DISL:BSCA:1,2011-08-05T18:30:00Z,30.3288,-87.8293,1.714,17.12,1111122 
DISL,ioos:station:DISL:BSCA:1,2011-08-05T19:00:00Z,30.3288,-87.8293,1.695,17.68,1111122 
DISL,ioos:station:DISL:BSCA:1,2011-08-05T19:30:00Z,30.3288,-87.8293,1.696,17.19,1111122 
DISL,ioos:station:DISL:BSCA:1,2011-08-05T20:00:00Z,30.3288,-87.8293,1.693,17.35,1111122 
DISL,ioos:station:DISL:BSCA:1,2011-08-05T20:30:00Z,30.3288,-87.8293,1.707,17.33,1111122 
DISL,ioos:station:DISL:BSCA:1,2011-08-05T21:00:00Z,30.3288,-87.8293,1.712,17.75,1111122 
DISL,ioos:station:DISL:BSCA:1,2011-08-05T21:30:00Z,30.3288,-87.8293,1.735,17.82,1111122 
DISL,ioos:station:DISL:BSCA:1,2011-08-05T22:00:00Z,30.3288,-87.8293,1.749,17.51,1111122 
DISL,ioos:station:DISL:BSCA:1,2011-08-05T22:30:00Z,30.3288,-87.8293,1.782,17.83,1111122 
DISL,ioos:station:DISL:BSCA:1,2011-08-05T23:00:00Z,30.3288,-87.8293,1.781,17.84,1111122 
DISL,ioos:station:DISL:BSCA:1,2011-08-05T23:30:00Z,30.3288,-87.8293,1.812,17.63,1111122 
DISL,ioos:station:DISL:BSCA:1,2011-08-06T00:00:00Z,30.3288,-87.8293,1.808,17.78,1111122 
DISL,ioos:station:DISL:BSCA:1,2011-08-06T00:30:00Z,30.3288,-87.8293,1.844,17.73,1111122 
DISL,ioos:station:DISL:BSCA:1,2011-08-06T01:00:00Z,30.3288,-87.8293,1.868,17.41,1111122 
DISL,ioos:station:DISL:BSCA:1,2011-08-06T01:30:00Z,30.3288,-87.8293,1.9,16.58,1111122 
DISL,ioos:station:DISL:BSCA:1,2011-08-06T02:00:00Z,30.3288,-87.8293,1.921,17.69,1111122 
DISL,ioos:station:DISL:BSCA:1,2011-08-06T02:30:00Z,30.3288,-87.8293,1.927,17.75,1111122 
DISL,ioos:station:DISL:BSCA:1,2011-08-06T03:00:00Z,30.3288,-87.8293,1.95,16.59,1111122 
DISL,ioos:station:DISL:BSCA:1,2011-08-06T03:30:00Z,30.3288,-87.8293,1.967,17.09,1111122 
DISL,ioos:station:DISL:BSCA:1,2011-08-06T04:00:00Z,30.3288,-87.8293,1.985,15.9,1111122 
DISL,ioos:station:DISL:BSCA:1,2011-08-06T04:30:00Z,30.3288,-87.8293,2.014,16.6,1111122 
DISL,ioos:station:DISL:BSCA:1,2011-08-06T05:00:00Z,30.3288,-87.8293,2.033,15.97,1111122 
DISL,ioos:station:DISL:BSCA:1,2011-08-06T05:30:00Z,30.3288,-87.8293,2.064,15.81,1111122 
DISL,ioos:station:DISL:BSCA:1,2011-08-06T06:00:00Z,30.3288,-87.8293,2.073,15.88,1111122 
DISL,ioos:station:DISL:BSCA:1,2011-08-06T06:30:00Z,30.3288,-87.8293,2.103,15.56,1111122 
DISL,ioos:station:DISL:BSCA:1,2011-08-06T07:00:00Z,30.3288,-87.8293,2.141,15.89,1111122 
DISL,ioos:station:DISL:BSCA:1,2011-08-06T07:30:00Z,30.3288,-87.8293,2.158,15.64,1111122 
DISL,ioos:station:DISL:BSCA:1,2011-08-06T08:00:00Z,30.3288,-87.8293,2.188,15.5,1111122 
DISL,ioos:station:DISL:BSCA:1,2011-08-06T08:30:00Z,30.3288,-87.8293,2.206,15.1,1111122 
DISL,ioos:station:DISL:BSCA:1,2011-08-06T09:00:00Z,30.3288,-87.8293,2.216,15.14,1111122 
DISL,ioos:station:DISL:BSCA:1,2011-08-06T09:30:00Z,30.3288,-87.8293,2.226,15.78,1111122 
DISL,ioos:station:DISL:BSCA:1,2011-08-06T10:00:00Z,30.3288,-87.8293,2.193,15.47,1111122 
DISL,ioos:station:DISL:BSCA:1,2011-08-06T10:30:00Z,30.3288,-87.8293,2.215,16.22,1111122 
DISL,ioos:station:DISL:BSCA:1,2011-08-06T11:00:00Z,30.3288,-87.8293,2.192,17.67,1111122 
DISL,ioos:station:DISL:BSCA:1,2011-08-06T11:30:00Z,30.3288,-87.8293,2.233,16.74,1111122 
DISL,ioos:station:DISL:BSCA:1,2011-08-06T12:00:00Z,30.3288,-87.8293,2.191,16.91,1111122 
DISL,ioos:station:DISL:BSCA:1,2011-08-06T12:30:00Z,30.3288,-87.8293,2.16,17.01,1111122 
DISL,ioos:station:DISL:BSCA:1,2011-08-06T13:00:00Z,30.3288,-87.8293,2.118,17.09,1111122 
DISL,ioos:station:DISL:BSCA:1,2011-08-06T13:30:00Z,30.3288,-87.8293,2.081,16.91,1111122 
DISL,ioos:station:DISL:BSCA:1,2011-08-06T14:00:00Z,30.3288,-87.8293,2.049,17.5,1111122 